Green Camp, OH (43322)

4:23 AM EDT on August 29, 2015 (GMT -0400)
Green Camp Fire Department | | Change Station
CLOSE
Current Station
Personal Weather Station
Location: Green Camp, OH
Elevation: 915 ft
Nearby Weather Stations

Elev 915 ft 40.53 °N, 83.21 °W | Updated 11 seconds ago

Partly Cloudy
Partly Cloudy
59.5 °F
Feels Like 59.5 °F
N
0.0
Wind Variable Wind from North
Gusts 1.6 mph

Today
High -- | Low -- °F
--% Chance of Precip.
Yesterday
High -- | Low -- °F
Precip. -- in
6:56 AM 8:10 PM
Full, 100% visible
Pressure 30.13 in
Visibility 9.0 miles
Clouds Clear
Dew Point 59 °F
Humidity 99%
Rainfall 0.00 in
Snow Depth Not available.
UV 0 out of 12
Pollen 10.10 out of 12
Air Quality Not available.
Flu Activity Not available.
METAR KMNN 290753Z AUTO 00000KT 9SM CLR 16/13 A3014 RMK AO2 SLP203 T01560133 TSNO
Pressure 30.13 in
Visibility 9.0 miles
Clouds Clear
Dew Point 59 °F
Humidity 99%
Rainfall 0.00 in
Snow Depth Not available.
UV 0 out of 12
Pollen 10.10 out of 12
Air Quality Not available.
Flu Activity Not available.
METAR KMNN 290753Z AUTO 00000KT 9SM CLR 16/13 A3014 RMK AO2 SLP203 T01560133 TSNO

10-Day Weather Forecast

×

Almanac

Astronomy

Aug. 29, 2015 Rise Set
Actual Time
Civil Twilight
Nautical Twilight
Astronomical Twilight
Moon
Length of Visible Light
Length of Day
Tomorrow will be .
, % of the Moon is Illuminated

Today's Extremes

State Highs State Lows

Community

WunderPhotos

Upload Photos

1,850,634 photos uploaded!

WunderBlogs® & News

Nearby

Air Quality

  Air Quality AQ Index Pollutant
Not available.

Snow Depth

Station Depth Elevation

Earthquake Activity

City Distance Mag. Time & Date
Minimum magnitude displayed is 2.5.

Coastal Water Temperatures

Place Temperature

Stations

Nearby Weather Stations

Station Location Temp. Windchill Dew Point Humidity Wind Precip. Elev Updated Type